{"data":{"norad_id":40045,"intl_designator":"2014-033AM","name":"AEROCUBE 6A","alt_names":[],"object_type":"PAYLOAD","status":"ACTIVE","operator":null,"country":"US","launch_date":"2014-06-19","launch_site_code":"DLS","launch_vehicle":null,"mission":null,"orbit_class":"UNKNOWN","rcs_meters":0.0179,"size_class":null,"mass_kg":null,"dimensions":null,"purposes":["tech_demo"],"wikipedia_slug":null,"has_3d_model":false,"image_url":null,"decayed_at":null,"tle_current":{"epoch":"2026-05-24T23:28:27.141024Z","epoch_age_seconds":80124,"freshness":"FRESH","line1":"1 40045U 14033AM  26144.97809191  .00004873  00000+0  41316-3 0  9994","line2":"2 40045  97.7213 312.1825 0039600  93.2361 267.3393 14.97806302643149","mean_motion":14.97806302,"eccentricity":0.00396,"inclination_deg":97.7213,"raan_deg":312.1825,"arg_perigee_deg":93.2361,"mean_anomaly_deg":267.3393,"bstar":0.00041316,"rev_number":64314,"period_min":96.140602297987,"perigee_km":546.1466767534,"apogee_km":601.20503457024,"semimajor_km":6951.8128556618,"source":"CELESTRAK","updated_at":"2026-05-25T13:38:25.523488Z"}}}